Terug naar catalogus

MEASAT 3

ActiefCommunicatieGEO
NORAD 29648·PAYLOAD·🇲🇾 Malaysia

Gelanceerd Dec 11, 2006 vanaf Baikonur Cosmodrome

Loading…

TLE

VersSource: Space-Track

Epoch: Sep 14, 2026, 15:11 UTC

1 29648U 06056A   26257.63325101 -.00000099  00000-0  00000-0 0  9998
2 29648   4.9530  74.9777 0003680 173.5613 147.3755  0.99754268 51273

Volg MEASAT 3 in realtime met AllMySat

Download on the App Store